[[{"header":{"parameterUnit":"m.s-1","parameterCategory":1,"la1":30.2991,"la2":30.254,"lo1":-89.0895,"lo2":-89.0444,"dy":0.0017,"dx":0.0017,"nx":28,"ny":28,"refTime":"2024-02-21T03:00:00:Z","depth":0,"parameterNumber":2,"parameterNumberName":"U-component_of_WINDS"},"data":[0,0,0,0,0,0,0,0,0,0,0,0,0,0,0,0,0,0,0,0,0,0,0,0,0,0,0,0,0,0,0,0,0,0,0,0,0,0,0,0,0,0,0,0,0,0,0,0,0,0,0,0,0,0,0,0,0,0,-1.6727,-1.6727,0,-1.6686,-1.6685,-1.6685,-1.6629,-1.6628,-1.6627,-1.6626,-1.6583,-1.6583,-1.6582,0,0,0,0,0,0,0,0,0,0,0,0,0,-1.6757,-1.6757,-1.6727,-1.6726,-1.6726,-1.6686,-1.6685,-1.6685,-1.6629,-1.6628,-1.6627,-1.6626,-1.6583,-1.6583,-1.6582,0,0,0,0,0,0,0,0,0,0,0,0,0,-1.6733,-1.6757,-1.6727,-1.6693,-1.669,-1.6686,-1.6685,-1.6685,-1.6629,-1.6628,-1.6627,-1.6625,-1.6583,-1.6583,-1.6582,-1.6608,0,0,-1.6581,-1.6581,0,0,0,0,0,0,0,0,-1.6735,-1.6732,-1.6699,-1.6696,-1.6692,-1.6661,-1.668,-1.6659,-1.663,-1.6652,-1.6626,-1.6625,-1.661,-1.6607,-1.6603,-1.6606,-1.6604,-1.6581,-1.6581,-1.6581,-1.658,0,0,0,0,0,0,0,-1.6736,-1.6733,-1.6711,-1.6698,-1.6694,-1.668,-1.6675,-1.6676,-1.6639,-1.665,-1.6646,-1.6642,-1.6608,-1.6603,-1.6601,-1.6603,-1.6581,-1.6581,-1.658,-1.658,-1.6625,-1.6626,0,0,0,0,0,0,-1.6743,-1.6735,-1.6712,-1.6709,-1.671,-1.6681,-1.6675,-1.6672,-1.6639,-1.6633,-1.6643,-1.664,-1.6605,-1.6602,-1.6599,-1.6626,-1.6581,-1.658,-1.658,-1.6623,-1.6625,-1.6627,0,0,0,0,0,0,-1.6744,-1.6741,-1.6714,-1.6721,-1.6717,-1.6682,-1.6679,-1.6672,-1.6667,-1.6634,-1.6627,-1.6645,-1.6603,-1.66,-1.6606,-1.6624,-1.658,-1.658,-1.6622,-1.6624,-1.6626,-1.668,0,0,0,0,0,0,-1.6745,-1.6742,-1.6751,-1.6722,-1.6716,-1.6721,-1.668,-1.6673,-1.6667,-1.6662,-1.6634,-1.6628,-1.6602,-1.6607,-1.6606,-1.6622,-1.6579,-1.662,-1.6623,-1.6625,-1.6676,-1.6684,-1.669,0,0,0,0,0,-1.6746,-1.6768,-1.6752,-1.6749,-1.6727,-1.6722,-1.6719,-1.6689,-1.6669,-1.6677,-1.6656,-1.6629,-1.6623,-1.6608,-1.6606,-1.6623,-1.6619,-1.6622,-1.6625,-1.6673,-1.6682,-1.669,0,0,0,0,0,0,-1.6799,-1.6763,-1.6745,-1.6758,-1.6744,-1.6713,-1.6722,-1.6699,-1.669,-1.6685,-1.6648,-1.6643,-1.6653,-1.6639,-1.6623,-1.6646,-1.6617,-1.662,-1.6654,-1.6662,-1.6669,-1.6671,-1.6579,0,0,0,0,0,-1.6813,-1.6812,-1.6781,-1.6795,-1.6789,-1.6757,-1.6754,-1.6732,-1.6716,-1.6709,-1.6688,-1.6673,-1.6668,-1.6665,-1.6658,-1.6675,-1.6668,-1.6686,-1.6693,-1.6699,-1.6701,-1.6709,-1.6716,-1.6637,-1.6637,-1.6637,0,0,-1.684,-1.682,-1.6822,-1.6805,-1.6791,-1.6791,-1.6752,-1.6754,-1.6753,-1.6709,-1.6713,-1.6698,-1.6679,-1.669,-1.6694,-1.6679,-1.6722,-1.6703,-1.6708,-1.6707,-1.6713,-1.672,-1.6727,-1.664,-1.6639,-1.6639,0,0,-1.6889,-1.6874,-1.6884,-1.6872,-1.6852,-1.6831,-1.6834,-1.6807,-1.6795,-1.6799,-1.6766,-1.6765,-1.6757,-1.6744,-1.6737,-1.6784,-1.6757,-1.6783,-1.6817,-1.6825,-1.6831,-1.6836,-1.6851,-1.6857,-1.6786,-1.6786,-1.6786,0,-1.6924,-1.6922,-1.6892,-1.6895,-1.6889,-1.6851,-1.6861,-1.685,-1.6829,-1.6825,-1.6809,-1.6798,-1.6782,-1.679,-1.6802,-1.6798,-1.6799,-1.6784,-1.6833,-1.6838,-1.6842,-1.6856,-1.6862,-1.6789,-1.6788,-1.6788,-1.6788,0,-1.6967,-1.6967,-1.6977,-1.6958,-1.6953,-1.696,-1.6931,-1.6929,-1.6909,-1.689,-1.6895,-1.6876,-1.6864,-1.6865,-1.6845,-1.687,-1.6861,-1.684,-1.6809,-1.6853,-1.6865,-1.6871,-1.6793,-1.6792,-1.6791,-1.679,0,0,-1.7045,-1.7011,-1.7015,-1.7006,-1.6982,-1.6981,-1.6987,-1.6976,-1.6975,-1.6963,-1.6966,-1.6961,-1.6941,-1.6933,-1.6911,-1.6919,-1.6955,-1.6896,-1.6895,-1.6906,-1.6981,-1.6996,-1.7003,-1.694,-1.6941,-1.6941,-1.6982,0,-1.7087,-1.7094,-1.7068,-1.7081,-1.708,-1.7045,-1.705,-1.7036,-1.702,-1.7016,-1.6998,-1.6994,-1.6969,-1.6964,-1.697,-1.695,-1.697,-1.6947,-1.6941,-1.6941,-1.6944,-1.7009,-1.7025,-1.7064,-1.6987,-1.6988,-1.6988,0,-1.7137,-1.7128,-1.7141,-1.7117,-1.7116,-1.7121,-1.7109,-1.7107,-1.7091,-1.7078,-1.707,-1.7046,-1.7049,-1.7023,-1.7027,-1.7012,-1.7008,-1.6999,-1.6999,-1.6995,-1.6965,-1.7005,-1.7076,-1.7081,-1.6996,-1.6996,-1.6995,0,-1.719,-1.7182,-1.7188,-1.7182,-1.7155,-1.7159,-1.7148,-1.713,-1.7126,-1.7116,-1.7113,-1.7104,-1.7099,-1.7092,-1.7066,-1.705,-1.7073,-1.7045,-1.7062,-1.7063,-1.7066,-1.7066,-1.7135,-1.7068,-1.7068,-1.7068,-1.7068,0,-1.7239,-1.7248,-1.7212,-1.7216,-1.7225,-1.7196,-1.7206,-1.7191,-1.7177,-1.7177,-1.7148,-1.7149,-1.7116,-1.7113,-1.7093,-1.7099,-1.7097,-1.7087,-1.7081,-1.7088,-1.7089,-1.7083,-1.7079,-1.707,-1.7069,-1.7069,-1.7069,0,-1.7298,-1.7275,-1.7279,-1.7254,-1.7248,-1.7256,-1.7234,-1.7237,-1.722,-1.7221,-1.7219,-1.7192,-1.7187,-1.7162,-1.7152,-1.7138,-1.7151,-1.7141,-1.7156,-1.7151,-1.717,-1.7168,-1.7235,-1.7242,-1.7174,-1.7174,-1.7175,0,-1.7329,-1.7336,-1.7312,-1.731,-1.73,-1.7298,-1.7294,-1.7266,-1.7263,-1.7246,-1.725,-1.7244,-1.7237,-1.7232,-1.7211,-1.7203,-1.7191,-1.7215,-1.7189,-1.7196,-1.7189,-1.7188,-1.7188,-1.722,-1.7221,-1.7222,-1.7222,0,-1.7387,-1.7375,-1.737,-1.7361,-1.7357,-1.7349,-1.7338,-1.7339,-1.7308,-1.7306,-1.7302,-1.7296,-1.7287,-1.728,-1.7269,-1.7257,-1.7234,-1.7231,-1.7234,-1.724,-1.7248,-1.7242,-1.7168,-1.7229,-1.7228,-1.7228,-1.7227,-1.7227,-1.7432,-1.7436,-1.7419,-1.7415,-1.7405,-1.7396,-1.7397,-1.7381,-1.7376,-1.7366,-1.7351,-1.7348,-1.7333,-1.7316,-1.7306,-1.7304,-1.7291,-1.7296,-1.7297,-1.7298,-1.7301,-1.7251,-1.7302,-1.7302,-1.7302,-1.7302,-1.7301,0,-1.7486,-1.7474,-1.7471,-1.7457,-1.7454,-1.7435,-1.7423,-1.7421,-1.7419,-1.7407,-1.7402,-1.7397,-1.7391,-1.737,-1.7362,-1.7364,-1.7354,-1.7363,-1.7361,-1.7359,-1.7314,-1.7311,-1.7372,-1.7372,-1.7372,-1.7372,-1.7372,-1.7372,-1.7513,-1.7519,-1.7505,-1.7506,-1.7494,-1.7491,-1.7486,-1.7478,-1.7469,-1.7464,-1.746,-1.7447,-1.7431,-1.7422,-1.7416,-1.741,-1.7408,-1.742,-1.7411,-1.7369,-1.7362,-1.7355,-1.7352,-1.742,-1.7421,-1.7455,-1.7455,-1.7456]},{"header":{"parameterUnit":"m.s-1","parameterCategory":1,"la1":30.2991,"la2":30.254,"lo1":-89.0895,"lo2":-89.0444,"dy":0.0017,"dx":0.0017,"nx":28,"ny":28,"refTime":"2024-02-21T03:00:00:Z","depth":0,"parameterNumber":3,"parameterNumberName":"V-component_of_WINDS"},"data":[0,0,0,0,0,0,0,0,0,0,0,0,0,0,0,0,0,0,0,0,0,0,0,0,0,0,0,0,0,0,0,0,0,0,0,0,0,0,0,0,0,0,0,0,0,0,0,0,0,0,0,0,0,0,0,0,0,0,3.014,3.014,0,3.0134,3.0134,3.0134,3.0177,3.0179,3.018,3.0181,3.0169,3.0168,3.0166,0,0,0,0,0,0,0,0,0,0,0,0,0,3.0187,3.0186,3.014,3.014,3.014,3.0134,3.0134,3.0134,3.0177,3.0179,3.018,3.0182,3.017,3.0168,3.0166,0,0,0,0,0,0,0,0,0,0,0,0,0,3.0172,3.0186,3.014,3.0161,3.0163,3.0134,3.0134,3.0134,3.0177,3.0179,3.0181,3.0182,3.017,3.0168,3.0166,3.0115,0,0,3.0159,3.0158,0,0,0,0,0,0,0,0,3.0173,3.0171,3.0158,3.016,3.0162,3.0159,3.0146,3.0127,3.0176,3.0171,3.0181,3.0183,3.0164,3.0162,3.0157,3.0114,3.0114,3.0159,3.0158,3.0157,3.0156,0,0,0,0,0,0,0,3.0174,3.0171,3.0138,3.0158,3.016,3.017,3.017,3.0143,3.0157,3.0172,3.0175,3.0174,3.0165,3.0159,3.0157,3.0114,3.0159,3.0157,3.0156,3.0155,3.0033,3.0031,0,0,0,0,0,0,3.0173,3.0172,3.0138,3.0137,3.0172,3.0168,3.0168,3.0158,3.0158,3.0159,3.0173,3.0176,3.0162,3.0159,3.0157,3.0099,3.0157,3.0155,3.0153,3.0034,3.0032,3.003,0,0,0,0,0,0,3.0174,3.017,3.0138,3.0156,3.0152,3.0165,3.0153,3.0156,3.015,3.0158,3.016,3.0164,3.0163,3.016,3.0126,3.0099,3.0154,3.0152,3.0037,3.0034,3.0031,2.9983,0,0,0,0,0,0,3.0175,3.017,3.0151,3.0155,3.0151,3.0108,3.0152,3.0155,3.0147,3.0152,3.015,3.0152,3.0164,3.0129,3.0124,3.0097,3.015,3.0039,3.0035,3.0032,2.9987,2.9978,2.9971,0,0,0,0,0,3.0177,3.0135,3.015,3.0145,3.0128,3.0107,3.0105,3.0121,3.0145,3.0126,3.0131,3.0152,3.0103,3.0125,3.012,3.0092,3.0041,3.0036,3.0032,2.999,2.998,2.9972,0,0,0,0,0,0,3.0125,3.0136,3.0152,3.0111,3.0108,3.0114,3.0091,3.0109,3.0098,3.0103,3.0122,3.0122,3.0085,3.0085,3.011,3.0044,3.0076,3.007,3.0046,3.0036,3.0029,3.003,3.0148,0,0,0,0,0,3.011,3.0092,3.0102,3.0065,3.0063,3.0077,3.0068,3.0082,3.0079,3.0077,3.008,3.0075,3.0059,3.0047,3.0033,2.9987,2.9988,2.9965,2.9958,2.9951,2.9946,2.9925,2.9915,3.0016,3.0016,3.0016,0,0,3.0076,3.008,3.0067,3.0055,3.0055,3.0036,3.0076,3.0053,3.004,3.0073,3.0043,3.0045,3.004,3.0001,2.9984,3.0,2.9919,2.9946,2.9941,2.9939,2.9919,2.991,2.9902,3.0013,3.0013,3.0014,0,0,3.0006,3.0007,2.9978,2.9977,2.9977,2.9987,2.998,2.9984,2.9987,2.9958,2.9983,2.9967,2.9938,2.9935,2.9929,2.9862,2.9881,2.9856,2.9816,2.9795,2.9787,2.9781,2.9759,2.975,2.9851,2.9851,2.9851,0,2.9964,2.9939,2.996,2.9938,2.9932,2.9964,2.9935,2.9933,2.9926,2.9921,2.994,2.9907,2.9906,2.9868,2.9852,2.9846,2.9839,2.9857,2.9787,2.978,2.9774,2.9754,2.9745,2.9848,2.9849,2.9849,2.9849,0,2.9889,2.9871,2.9847,2.9844,2.9835,2.9809,2.9826,2.9815,2.983,2.9838,2.9809,2.9809,2.9797,2.9789,2.9801,2.9753,2.9764,2.9784,2.9816,2.9762,2.9743,2.9734,2.9844,2.9845,2.9846,2.9847,0,0,2.9785,2.9796,2.9787,2.9787,2.979,2.9776,2.9752,2.9743,2.9734,2.9728,2.971,2.9686,2.9707,2.97,2.9713,2.9695,2.9644,2.9718,2.9718,2.9706,2.9594,2.9579,2.957,2.9657,2.9656,2.9655,2.9595,0,2.9719,2.9681,2.97,2.9659,2.9644,2.9675,2.9655,2.9654,2.9661,2.9649,2.9656,2.9641,2.9667,2.9665,2.9647,2.9654,2.9622,2.9659,2.964,2.9639,2.9642,2.9559,2.9543,2.9487,2.9587,2.9586,2.9585,0,2.9636,2.9631,2.9589,2.9598,2.9593,2.9574,2.9568,2.9556,2.9556,2.9563,2.9558,2.9576,2.9554,2.9586,2.9556,2.958,2.9574,2.9576,2.9574,2.9574,2.9609,2.9558,2.9469,2.9461,2.9573,2.9574,2.9575,0,2.9567,2.955,2.9523,2.9522,2.9531,2.9518,2.9521,2.9523,2.9517,2.9512,2.9508,2.9499,2.9494,2.9486,2.9502,2.9523,2.947,2.9503,2.9475,2.9475,2.9463,2.9464,2.9373,2.9457,2.9457,2.9457,2.9457,0,2.9492,2.9465,2.9493,2.9477,2.9449,2.9472,2.9443,2.9449,2.9451,2.9437,2.9462,2.9448,2.9469,2.9457,2.9468,2.9443,2.9439,2.9445,2.9448,2.9443,2.9443,2.944,2.9445,2.9455,2.9455,2.9456,2.9456,0,2.941,2.9427,2.9401,2.9413,2.9416,2.9395,2.9405,2.939,2.9401,2.9382,2.9379,2.9395,2.9382,2.9397,2.9384,2.9392,2.9358,2.9367,2.9359,2.9362,2.9334,2.9337,2.9239,2.9229,2.9318,2.9317,2.9316,0,2.9361,2.9342,2.9354,2.9347,2.935,2.9338,2.9333,2.9355,2.9348,2.9349,2.9335,2.9325,2.9318,2.9296,2.9306,2.9297,2.9306,2.9273,2.9305,2.9302,2.9308,2.931,2.9309,2.9266,2.9265,2.9264,2.9263,0,2.9274,2.9284,2.9277,2.9274,2.9268,2.9265,2.9264,2.9257,2.928,2.9272,2.9261,2.9256,2.9245,2.9235,2.923,2.9232,2.9252,2.9254,2.9247,2.9242,2.9239,2.9242,2.9342,2.9256,2.9256,2.9257,2.9257,2.9258,2.9208,2.9194,2.9201,2.9193,2.9196,2.9195,2.9183,2.9194,2.9185,2.918,2.9193,2.9179,2.9182,2.9177,2.9178,2.9167,2.9181,2.9171,2.9169,2.9166,2.9163,2.924,2.9166,2.9166,2.9166,2.9166,2.9166,0,2.9124,2.9131,2.9123,2.9124,2.9117,2.9139,2.914,2.9133,2.9121,2.9123,2.9117,2.9106,2.9097,2.9107,2.91,2.909,2.9099,2.9087,2.9089,2.9089,2.915,2.9157,2.908,2.908,2.908,2.908,2.908,2.908,2.908,2.9058,2.907,2.905,2.9056,2.9045,2.9044,2.9044,2.9046,2.9033,2.9027,2.9034,2.904,2.9034,2.9028,2.9031,2.9028,2.9013,2.902,2.9076,2.9085,2.9093,2.91,2.9012,2.9012,2.896,2.896,2.896]}]]